Location: Waldport
(44.4270°N, 124.0680°W)
Time: 21:55:29
(UTC-07:00)

Daily predictions for brighter satellites

Satellite Brightness Start Highest point End
(mag) Time Altitude Azimuth Time Altitude Azimuth Time Altitude Azimuth
Meteor 1-24 Rocket 3.8 19:16:39 10° NNW 19:22:17 84° W 19:27:42 10° S
In-Cosmos 22 4.4 19:19:44 10° N 19:25:26 56° ENE 19:31:03 10° SSE
Cosmos 1076 Rocket 3.6 19:22:16 10° N 19:26:34 61° E 19:30:53 10° SSE
Nadezhda 4 Rocket 4.5 19:25:18 10° N 19:31:07 38° ENE 19:36:50 10° SE
ATLAS CENTAUR R/B 3.7 19:26:40 10° SSW 19:31:35 67° SE 19:47:15 10° NE
NOSS 3-2 (C) 3.5 19:26:14 10° SSW 19:32:20 81° SE 19:39:03 10° NE
Cosmos 1766 Rocket 3.6 19:28:12 10° N 19:32:32 58° E 19:36:48 10° SSE
Spot 2 Rocket 3.9 19:30:47 10° SE 19:35:27 40° ENE 19:40:09 10° N
Cosmos 2333 Rocket 4.2 19:31:21 10° WSW 19:36:23 30° NW 19:41:26 10° N
Cosmos 1346 3.8 19:34:15 10° N 19:36:57 30° ENE 19:39:38 10° SE
Cosmos-2242 3.4 19:34:05 10° SSE 19:38:12 42° E 19:42:22 10° NNE
HJ-1C 4.2 19:35:46 10° SE 19:38:46 31° ENE 19:41:47 10° N
FREGAT/IRIS 2.9 19:36:17 10° SSE 19:39:15 45° ENE 19:42:14 10° N
SJ-6B 2.8 19:36:24 10° SSE 19:40:22 68° ENE 19:44:29 10° N
Cosmos 1072 Rocket 4.4 19:34:17 10° S 19:40:23 82° E 19:46:32 10° N
ATLAS 5 CENTAUR R/B 1.9 19:37:34 10° SW 19:42:22 90° SE 19:47:38 10° NE
Cosmos 1544 3.7 19:40:28 10° SSE 19:43:53 34° E 19:47:18 10° NNE
Cosmos 1269 Rocket 4.4 19:39:30 10° S 19:44:25 41° ESE 19:49:22 10° NE
Cosmos 1484 Rocket 3.7 19:42:59 10° S 19:46:45 52° W 19:50:37 10° NNW
SAR-Lupe-4 3.6 19:43:22 10° SSE 19:46:57 83° WSW 19:50:32 10° NNW
Cosmos 2237 Rocket 4.3 19:46:49 10° WSW 19:51:37 27° NW 19:56:25 10° N
Cosmos 1758 3.3 19:52:27 10° S 19:56:32 77° E 20:00:40 10° NNE
CZ-4B DEB 4.0 19:55:35 17° ESE 19:57:04 24° ENE 19:59:45 10° NNE
FengYun 1-2 T 4.4 19:52:25 10° SE 19:57:43 51° ENE 20:03:01 10° N
METEOR-M 4.1 19:55:58 10° SSE 20:01:18 77° ENE 20:06:40 10° N
Cosmos 1408 Rocket 4.1 19:58:56 10° NNW 20:03:14 61° W 20:07:28 10° S
USA 215 3.7 19:57:51 10° ENE 20:03:53 38° SE 20:09:53 10° SSW
Cosmos 1500 Rocket 3.8 20:00:14 10° N 20:04:31 46° ENE 20:08:48 10° SSE
Cosmos 724 4.4 19:59:00 10° SSW 20:04:57 90° WNW 20:11:06 10° NE
Cosmos 1842 Rocket 3.9 20:03:18 10° SSE 20:07:22 41° E 20:11:29 10° NNE
SL-16 R/B 3.7 20:08:39 10° WSW 20:13:55 38° NW 20:19:13 10° NNE
Helios 1A 2.9 20:10:20 10° SSE 20:14:32 79° ENE 20:18:47 10° N
Cosmos 2034 Rocket 4.2 20:09:24 10° S 20:15:41 80° W 20:22:05 10° N
Meteor 1-29 3.0 20:12:55 10° NNE 20:16:22 54° E 20:19:48 10° S
ERS-1 Rocket 4.4 20:15:50 19° ENE 20:16:31 19° ENE 20:20:00 10° NNE
Meteor 1-28 Rocket 3.8 20:13:19 10° N 20:17:00 57° WNW 20:20:38 10° SSW
Spot 1 4.4 20:12:51 10° S 20:17:30 74° WSW 20:21:53 10° NNW
CZ-2D R/B 3.7 20:17:14 25° SE 20:19:02 40° ENE 20:22:42 10° N
Meteor 1-21 Rocket 4.4 20:14:04 10° NNW 20:19:36 72° W 20:25:06 10° S
FENGYUN 3A 3.7 20:14:54 10° SSE 20:20:09 58° ENE 20:25:28 10° N
GPS 2-04 Rocket1 4.1 20:21:08 10° SW 20:23:40 19° S 20:24:12 18° SSE
TELKOM 3 4.1 20:25:42 10° WNW 20:28:15 36° SW 20:28:30 34° SSW
Cosmos 1110 Rocket 4.4 20:23:18 10° N 20:28:24 44° ENE 20:30:36 29° ESE
H-2A R/B 2.9 20:27:37 31° SE 20:29:09 52° ENE 20:32:55 10° N
Cosmos 1743 Rocket 4.1 20:29:46 10° NNW 20:34:10 60° W 20:38:29 10° S
ASTEX 1 3.2 20:30:59 10° N 20:35:54 71° E 20:40:46 10° S
Resurs 1-3 3.9 20:32:19 10° S 20:36:41 70° WSW 20:41:05 10° NNW
Helios 1B rocket 2.9 20:37:25 10° N 20:41:30 63° WNW 20:45:34 10° SSW
ALOS 2.2 20:37:21 11° SSE 20:41:50 87° WSW 20:46:32 10° NNW
Cosmos 1943 Rocket 2.6 20:37:30 10° NNW 20:42:53 44° ENE 20:44:16 37° E
ISS -3.4 20:39:43 10° WSW 20:42:59 78° NNW 20:43:12 72° NNE
Cosmos 1627 Rocket 4.4 20:38:31 10° N 20:44:42 64° E 20:49:09 20° SSE
Resurs 01 Rocket 2.8 20:40:57 10° S 20:45:12 44° W 20:49:29 10° NNW
Cosmos 2251 Rocket 3.7 20:43:32 10° S 20:48:30 46° ESE 20:53:30 10° NNE
SL-8 R/B 3.6 20:43:54 10° WSW 20:48:42 85° NNW 20:50:17 43° ENE
Cosmos 2369 Rocket 2.3 20:45:21 10° NNW 20:51:02 77° WSW 20:54:43 23° SSE
Cosmos 1733 3.3 20:47:35 10° SSW 20:51:27 75° W 20:55:20 10° N
ERBS 3.1 20:48:25 10° NW 20:51:22 42° NNE 20:51:22 42° NNE
Cosmos 1943 3.1 20:48:21 10° SSW 20:54:00 87° ESE 20:59:39 10° NNE
Cosmos 1674 4.1 20:53:49 10° NNW 20:57:28 39° W 21:01:05 10° SSW
Cosmos 1470 3.7 20:55:36 10° SSW 20:59:21 48° WNW 21:03:08 10° N
Cosmos 1331 Rocket 3.9 20:54:14 10° NNW 20:59:33 71° ENE 21:00:45 52° SE
Gbstr 26 Del rocket 3.2 20:55:45 10° SW 21:00:18 81° SSE 21:01:41 50° ENE
Abrixas 3.9 20:57:33 10° W 20:59:42 39° WNW 20:59:42 39° WNW
Cosmos 2263 4.2 20:57:22 10° NNW 21:03:11 84° WSW 21:05:30 38° SSE
Cosmos 2058 3.1 21:00:50 10° N 21:04:18 59° NNE 21:04:18 59° NNE
GP-B 3.1 21:01:55 10° N 21:06:23 81° W 21:07:56 40° SSW
CENTAUR R/B 2.5 21:01:30 10° SW 21:07:38 83° NW 21:14:37 10° NE
Cosmos 1302 Rocket 4.2 21:08:10 10° NNW 21:12:56 54° NE 21:12:56 54° NE
Cosmos 839 Rocket 4.5 21:05:52 10° NW 21:13:24 65° WSW 21:16:39 31° S
Cosmos 2151 3.4 21:09:51 10° NNW 21:14:00 58° W 21:14:53 47° SW
H-2A R/B 4.1 21:17:28 18° NNE 21:17:28 18° NNE 21:18:58 10° N
Cosmos 1805 Rocket 4.0 21:12:01 10° N 21:15:27 52° N 21:15:27 52° N
Cosmos 2279 Rocket 3.8 21:16:56 36° S 21:19:36 75° E 21:25:48 10° NNE
Cosmos 2221 3.9 21:23:22 30° N 21:23:22 30° N 21:25:37 10° N
Envisat 3.3 21:26:02 54° NNE 21:26:02 54° NNE 21:30:10 10° N
ATLAS 5 CENTAUR R/B 4.2 21:24:04 10° W 21:27:52 21° NNW 21:31:55 10° NNE
Meteor 2-1 Rocket 4.3 21:33:00 46° SSW 21:34:50 83° W 21:40:47 10° N
Cosmos 2026 Rocket 4.4 21:31:34 10° NNW 21:37:34 58° W 21:40:34 30° SSW
Cosmos 1655 Rocket 4.3 21:31:34 10° NNW 21:37:42 65° W 21:40:07 38° SSW
Cosmos 1428 Rocket 4.4 21:33:16 10° N 21:39:35 85° W 21:40:21 70° S
Cosmos 1656 Rocket 4.3 21:39:29 10° NNW 21:43:30 47° N 21:43:30 47° N
USA 215 3.4 21:44:09 34° NE 21:47:08 70° NNW 21:53:37 10° WSW
H-2A R/B 4.4 21:51:18 13° NNE 21:51:18 13° NNE 21:51:58 10° NNE
ERS-1 Rocket 3.7 21:55:52 49° NW 21:55:52 49° NW 21:59:49 10° NNW
BREEZE-M DEB (TANK) 4.0 21:56:03 10° WNW 22:02:31 46° W 22:02:31 46° W
Cosmos 1943 Rocket 3.8 22:21:39 10° NW 22:25:49 29° W 22:25:49 29° W
CZ-3A R/B 4.4 22:26:08 10° SW 22:48:39 66° SW 22:48:39 66° SW
CENTAUR R/B 4.5 22:54:06 10° W 22:59:27 26° NNW 23:05:21 10° NNE
